Memphis, TN

5:51 AM CDT on May 29, 2017 (GMT -0500)
Memphis International

Weather History for KMEM - March, 2013

Change the Weather History Date:

Thursday, March 14, 2013

  Actual Average Record
Temperature  
Mean Temperature 48 °F 53 °F  
Max Temperature 63 °F 63 °F 82 °F (2012)
Min Temperature 33 °F 44 °F 20 °F (1993)
Degree Days  
Heating Degree Days 17 12  
Month to date heating degree days 266 194  
Since 1 July heating degree days 2464 2644  
Cooling Degree Days 0 0  
Month to date cooling degree days 0 0  
Year to date cooling degree days 9 3  
Moisture  
Dew Point 28 °F    
Average Humidity 46    
Maximum Humidity 64    
Minimum Humidity 27    
Precipitation  
Precipitation 0.00 in 0.16 in 1.91 in (1912)
Month to date precipitation 1.49 2.22  
Year to date precipitation 15.06 10.59  
Snow  
Snow 0.00 in 0.00 in 4.60 in (1960)
Month to date snowfall T 0.3  
Since 1 July snowfall 0.9 3.7  
Snow Depth 0.00 in    
Sea Level Pressure  
Sea Level Pressure 30.32 in    
Wind  
Wind Speed 6 mph (South)    
Max Wind Speed 16 mph    
Max Gust Speed 22 mph    
Visibility 10 miles    
Events      
T = Trace of Precipitation, MM = Missing Value Source: NWS Daily Summary

Daily Weather History Graph

Daily Weather History Graph

Search for Another Location

Airport or City:

Trip Planner

Search our weather history database for the weather conditions in past years. The results will help you decide how hot, cold, wet, or windy it might be!

Date:

Astronomy

Mar. 14, 2013 Rise Set
Actual Time 7:11 AM CDT 7:06 PM CDT
Civil Twilight 6:46 AM CDT 7:32 PM CDT
Nautical Twilight 6:17 AM CDT 8:01 PM CDT
Astronomical Twilight 5:47 AM CDT 8:31 PM CDT
Moon 8:33 AM CDT (3/14) 10:14 PM CDT (3/14)
Length of Visible Light 12h 45m
Length of Day
11h 55m
Waxing Crescent, 9% of the Moon is Illuminated
Mar 14
Waxing Crescent
Mar 19
First Quarter
Mar 27
Full
Apr 2
Last Quarter
Apr 10
New

Hourly Weather History & Observations

Time (CDT) Temp. Windchill Dew Point Humidity Pressure Visibility Wind Dir Wind Speed Gust Speed Precip Events Conditions
12:54 AM 39.0 °F - 24.1 °F 55% 30.41 in 10.0 mi Calm Calm - N/A   Clear
1:54 AM 37.9 °F - 25.0 °F 60% 30.42 in 10.0 mi Calm Calm - N/A   Clear
2:54 AM 37.0 °F - 24.1 °F 59% 30.40 in 10.0 mi Calm Calm - N/A   Clear
3:54 AM 37.9 °F 34.4 °F 23.0 °F 55% 30.40 in 10.0 mi South 4.6 mph - N/A   Clear
4:54 AM 37.0 °F 33.3 °F 21.9 °F 54% 30.40 in 10.0 mi East 4.6 mph - N/A   Clear
5:54 AM 37.0 °F - 24.1 °F 59% 30.41 in 10.0 mi Calm Calm - N/A   Clear
6:54 AM 33.1 °F - 23.0 °F 66% 30.42 in 10.0 mi Calm Calm - N/A   Scattered Clouds
7:54 AM 36.0 °F 33.3 °F 23.0 °F 59% 30.42 in 10.0 mi SSE 3.5 mph - N/A   Partly Cloudy
8:54 AM 39.9 °F 33.9 °F 24.1 °F 53% 30.42 in 10.0 mi SE 9.2 mph - N/A   Partly Cloudy
9:54 AM 45.0 °F 41.2 °F 24.1 °F 44% 30.43 in 10.0 mi SSE 6.9 mph - N/A   Partly Cloudy
10:54 AM 48.0 °F - 24.1 °F 39% 30.41 in 10.0 mi Variable 3.5 mph - N/A   Partly Cloudy
11:54 AM 52.0 °F - 21.9 °F 31% 30.40 in 10.0 mi South 6.9 mph - N/A   Scattered Clouds
12:54 PM 55.9 °F - 26.1 °F 32% 30.36 in 10.0 mi South 9.2 mph - N/A   Scattered Clouds
1:54 PM 57.9 °F - 26.1 °F 30% 30.32 in 10.0 mi Variable 4.6 mph - N/A   Scattered Clouds
2:54 PM 61.0 °F - 27.0 °F 27% 30.27 in 10.0 mi SSW 6.9 mph 17.3 mph N/A   Scattered Clouds
3:54 PM 61.0 °F - 30.0 °F 31% 30.26 in 10.0 mi SSW 10.4 mph - N/A   Scattered Clouds
4:54 PM 62.1 °F - 32.0 °F 32% 30.23 in 10.0 mi SW 11.5 mph - N/A   Mostly Cloudy
5:54 PM 59.0 °F - 33.1 °F 38% 30.22 in 10.0 mi SSW 10.4 mph - N/A   Mostly Cloudy
6:54 PM 57.9 °F - 34.0 °F 41% 30.20 in 10.0 mi SSW 10.4 mph - N/A   Mostly Cloudy
7:54 PM 54.0 °F - 35.1 °F 49% 30.19 in 10.0 mi South 6.9 mph - N/A   Scattered Clouds
8:54 PM 52.0 °F - 35.1 °F 53% 30.19 in 10.0 mi South 6.9 mph - N/A   Partly Cloudy
9:54 PM 52.0 °F - 35.1 °F 53% 30.18 in 10.0 mi South 6.9 mph - N/A   Partly Cloudy
10:54 PM 53.1 °F - 35.1 °F 50% 30.19 in 10.0 mi SSW 8.1 mph - N/A   Partly Cloudy
11:54 PM 54.0 °F - 34.0 °F 47% 30.18 in 10.0 mi South 9.2 mph - N/A   Partly Cloudy